Regional Weather Roundup
Issued by NWS Green Bay, WI

Home | Current Version | Previous Version | Graphics & Text | Print | Product List | Glossary Off
Versions: 1 2 3 4 5 6 7 8 9 10 11 12 13 14 15 16 17 18 19 20 21 22 23 24 25 26 27 28 29 30 31 32 33 34 35 36 37 38 39 40 41 42 43 44 45 46 47 48 49 50

000
ASUS43 KGRB 201110
RWRGRB

NORTH-CENTRAL AND NORTHEAST WISCONSIN REGIONAL WEATHER ROUNDUP
NATIONAL WEATHER SERVICE GREEN BAY WI
600 AM CDT SUN APR 20 2014

WIZ005-009-010>012-018-019-201200-
NORTH CENTRAL WISCONSIN

CITY           SKY/WX    TMP DP  RH WIND       PRES   REMARKS
IRONWOOD       MOCLDY    45  37  76 CALM      29.99S
MANITOWISH WTR CLOUDY    39  37  92 CALM      30.04S
ARBOR VITAE    CLOUDY    45  39  80 S6        30.05R
EAGLE RIVER    MOCLDY    43  41  93 CALM      30.05S
LAND O LAKES   CLOUDY    45  38  77 CALM      30.06R
RHINELANDER    CLOUDY    47  38  71 S6        30.05F
PHILLIPS       CLOUDY    45  43  93 CALM      30.03S
ANTIGO         LGT RAIN  44  41  89 S10       30.08F
TOMAHAWK       CLOUDY    47  39  75 CALM      30.05S
MERRILL        CLOUDY    47  43  85 SE9G77    30.07S
$$

WIZ013-073-201200-
NORTHEAST WISCONSIN

CITY           SKY/WX    TMP DP  RH WIND       PRES   REMARKS
IRON MOUNTAIN  CLOUDY    40  38  93 SE3       30.07F FOG
MARINETTE      CLOUDY    45  39  81 S9        30.13F
OCONTO         CLOUDY    45  37  75 SE6       30.13F
$$

WIZ017-030-035>037-045-201200-
CENTRAL WISCONSIN

CITY           SKY/WX    TMP DP  RH WIND       PRES   REMARKS
MEDFORD        CLOUDY    48  42  80 S7        30.05S
WAUSAU         CLOUDY    49  42  77 S10       30.06F
MOSINEE        LGT RAIN  46  45  93 SE9       30.09F
MARSHFIELD     LGT RAIN  51  43  74 S8        30.07S
WISC RAPIDS    CLOUDY    55  37  50 S3        30.10S
STEVENS POINT  CLOUDY    51  37  58 CALM      30.11S
WAUPACA        CLOUDY    54  39  58 SE3       30.13R
SHAWANO        DRIZZLE   53  40  61 CALM      30.12S
CLINTONVILLE   CLOUDY    52  39  62 S6        30.12R
$$

WIZ038-039-048-051-201200-
FOX VALLEY

CITY           SKY/WX    TMP DP  RH WIND       PRES   REMARKS
NWS GREEN BAY  CLOUDY    50  41  71 S5        30.14F
APPLETON       CLOUDY    52  39  62 S10       30.14S
OSHKOSH        CLOUDY    50  39  66 S12       30.14R
FOND DU LAC    CLOUDY    53  38  56 S9        30.14S
$$

WIZ022-050-052-201200-
EAST CENTRAL WISCONSIN

CITY           SKY/WX    TMP DP  RH WIND       PRES   REMARKS
STURGEON BAY   CLOUDY    43  32  65 S15G21    30.16F
MANITOWOC      LGT RAIN  42  35  76 S8        30.18F
SHEBOYGAN      CLOUDY    44  33  65 S3        30.18S
$$

LMZ563-521-522-541>543-201200-
LAKESHORE

STATION/POSITION TIME  TEMP    WIND        PRES    VSBY  WAVE
                       AIR SEA DIR/SP/G                  HT/PER
                 (UTC) (F)     (DEG/KT/KT) (MB)    (MI)  (FT/S)
SHEBOYGAN LKSHOR 1100   40     180/ 14/ 16 1022.8F
KEWAUNEE LKSHORE 1100   40     170/ 19/ 21 1022.1F
NORTHPORT PIER   1100   40     170/  9/ 17 1021.7S
SISTER BAY LKSHO 1100   39     180/ 26/ 35   N/A
MENOMINEE LKSHOR 1100   40     160/ 12/ 15 1021.1S
$$



USA.gov is the U.S. government's official web portal to all federal, state and local government web resources and services.